Date String (YYYY-MM-DD hh:mm:ss) UTC,Instrument flags,Ambient pressure (hPa),Sample flow (lpm),Bypass flow (lpm),Sample temperature (°C),Ambient temperature (°C),ASC tube jacket temperature (°C),LED temperature (°C),Box temperature (°C),Sample RH (%),Span deviation,Mass concentration (μg/m³),Mass concentration (μg/m³),Mass concentration (μg/m³)
DateTimeUTC,F1_M11,P_M11,Q1_M11,Q2_M11,T1_M11,T2_M11,T3_M11,T4_M11,T5_M11,U1_M11,ZSPAN_M11,X2_M11,X0_M11,X1_M11
2023-04-12 23:00:00,,0821.0,4.99,0.00,29.7,27.7,00.0,38.1,31.2,08.1,0000.0,0003.38,0010.22,0002.57
2023-04-12 23:01:00,,0820.8,5.01,0.00,29.7,27.9,00.0,38.1,31.2,08.2,0000.0,0003.41,0009.76,0002.58
2023-04-12 23:02:00,,0820.9,5.01,0.00,29.7,28.1,00.0,38.1,31.3,08.3,0000.0,0003.42,0009.94,0002.57
2023-04-12 23:03:00,,0820.6,5.00,0.00,29.8,28.2,00.0,38.1,31.3,08.2,0000.0,0003.40,0009.83,0002.56
2023-04-12 23:04:00,,0820.5,4.99,0.00,29.8,28.3,00.0,38.1,31.4,08.1,0000.0,0003.38,0009.54,0002.54
2023-04-12 23:05:00,,0820.6,4.99,0.00,29.8,28.5,00.0,38.2,31.4,08.2,0000.0,0003.39,0009.47,0002.54
2023-04-12 23:06:00,,0820.5,5.02,0.00,29.9,28.5,00.0,38.2,31.4,08.3,0000.0,0003.38,0009.27,0002.53
2023-04-12 23:07:00,,0820.4,5.01,0.00,29.9,28.6,00.0,38.2,31.5,08.2,0000.0,0003.41,0009.32,0002.53
2023-04-12 23:08:00,,0820.3,5.00,0.00,29.9,28.7,00.0,38.2,31.5,08.1,0000.0,0003.42,0009.35,0002.53
2023-04-12 23:09:00,,0820.3,4.99,0.00,30.0,28.8,00.0,38.2,31.6,08.0,0000.0,0003.41,0009.56,0002.52
2023-04-12 23:10:00,,0820.3,4.99,0.00,30.0,28.8,00.0,38.3,31.6,08.0,0000.0,0003.37,0008.56,0002.51
2023-04-12 23:11:00,,0820.3,4.99,0.00,30.0,28.9,00.0,38.3,31.7,08.1,0000.0,0003.36,0008.29,0002.51
2023-04-12 23:12:00,,0820.3,5.01,0.00,30.1,28.1,00.0,38.3,31.7,08.3,0000.0,0003.33,0008.12,0002.50
2023-04-12 23:13:00,,0820.3,5.01,0.00,30.0,26.3,00.0,38.2,31.4,08.1,0000.0,0003.32,0007.92,0002.49
2023-04-12 23:14:00,,0820.2,4.99,0.00,29.9,25.6,00.0,38.1,31.2,08.1,0000.0,0003.31,0007.98,0002.49
2023-04-12 23:15:00,,0820.2,5.00,0.00,29.9,25.8,00.0,38.1,31.1,08.2,0000.0,0003.31,0007.62,0002.49
2023-04-12 23:16:00,,0820.2,5.01,0.00,29.8,26.1,00.0,38.1,31.0,08.2,0000.0,0003.28,0007.31,0002.47
2023-04-12 23:17:00,,0820.2,5.00,0.00,29.7,26.5,00.0,38.1,31.0,08.1,0000.0,0003.31,0007.69,0002.46
2023-04-12 23:18:00,,0820.2,5.00,0.00,29.7,26.8,00.0,38.1,31.0,08.2,0000.0,0003.36,0008.26,0002.47
2023-04-12 23:19:00,,0820.2,5.00,0.00,29.7,27.2,00.0,38.1,31.1,08.3,0000.0,0003.68,0009.90,0002.52
2023-04-12 23:20:00,,0820.2,4.98,0.00,29.7,27.4,00.0,38.1,31.1,08.3,0000.0,0003.74,0009.96,0002.53
2023-04-12 23:21:00,,0820.2,5.01,0.00,29.7,27.7,00.0,38.1,31.2,08.3,0000.0,0003.74,0010.30,0002.53
2023-04-12 23:22:00,,0820.2,4.99,0.00,29.7,27.9,00.0,38.1,31.2,08.3,0000.0,0003.74,0010.37,0002.52
2023-04-12 23:23:00,,0820.2,5.00,0.00,29.8,28.0,00.0,38.1,31.3,08.4,0000.0,0003.74,0010.97,0002.52
2023-04-12 23:24:00,,0820.1,5.00,0.00,29.8,28.2,00.0,38.1,31.3,08.2,0000.0,0003.80,0012.16,0002.54
2023-04-12 23:25:00,,0820.1,5.00,0.00,29.8,28.3,00.0,38.2,31.4,08.3,0000.0,0003.83,0012.78,0002.55
2023-04-12 23:26:00,,0820.2,4.99,0.00,29.8,28.4,00.0,38.2,31.4,08.2,0000.0,0003.85,0012.64,0002.58
2023-04-12 23:27:00,,0820.2,5.00,0.00,29.9,28.5,00.0,38.2,31.5,08.1,0000.0,0003.86,0012.68,0002.60
2023-04-12 23:28:00,,0820.2,4.99,0.00,29.9,28.6,00.0,38.2,31.5,08.3,0000.0,0003.84,0012.42,0002.62
2023-04-12 23:29:00,,0820.2,5.00,0.00,29.9,28.7,00.0,38.2,31.5,08.3,0000.0,0003.82,0011.93,0002.62
2023-04-12 23:30:00,,0820.2,5.01,0.00,30.0,28.8,00.0,38.3,31.7,08.3,0000.0,0003.48,0010.27,0002.57
2023-04-12 23:31:00,,0820.2,5.00,0.00,30.0,28.8,00.0,38.3,31.7,08.2,0000.0,0003.34,0009.50,0002.56
2023-04-12 23:32:00,,0820.2,4.99,0.00,30.0,28.8,00.0,38.3,31.7,08.3,0000.0,0003.31,0009.07,0002.57
2023-04-12 23:33:00,,0820.4,5.00,0.00,30.1,27.8,00.0,38.3,31.6,08.3,0000.0,0003.31,0009.04,0002.57
2023-04-12 23:34:00,,0820.1,5.00,0.00,30.0,25.9,00.0,38.2,31.3,08.3,0000.0,0003.31,0008.61,0002.58
2023-04-12 23:35:00,,0820.1,5.01,0.00,29.9,25.5,00.0,38.1,31.2,08.2,0000.0,0003.26,0007.56,0002.55
2023-04-12 23:36:00,,0820.1,5.00,0.00,29.8,25.8,00.0,38.1,31.1,08.1,0000.0,0003.25,0006.23,0002.54
2023-04-12 23:37:00,,0820.1,4.99,0.00,29.8,26.2,00.0,38.1,31.1,08.1,0000.0,0003.24,0005.91,0002.52
2023-04-12 23:38:00,,0820.1,5.02,0.00,29.7,26.5,00.0,38.1,31.1,08.2,0000.0,0003.24,0005.80,0002.50
2023-04-12 23:39:00,,0820.1,4.99,0.00,29.7,26.9,00.0,38.1,31.1,08.4,0000.0,0003.24,0005.84,0002.47
2023-04-12 23:40:00,,0820.1,4.99,0.00,29.7,27.2,00.0,38.1,31.1,08.4,0000.0,0003.20,0005.68,0002.46
2023-04-12 23:41:00,,0820.1,5.00,0.00,29.7,27.5,00.0,38.1,31.2,08.7,0000.0,0003.22,0005.90,0002.46
2023-04-12 23:42:00,,0820.1,5.00,0.00,29.7,27.7,00.0,38.1,31.2,08.5,0000.0,0003.25,0006.12,0002.44
2023-04-12 23:43:00,,0820.1,5.00,0.00,29.7,27.9,00.0,38.1,31.2,08.5,0000.0,0003.27,0006.29,0002.42
2023-04-12 23:44:00,,0820.1,5.00,0.00,29.8,28.1,00.0,38.1,31.3,08.5,0000.0,0003.26,0006.29,0002.40
2023-04-12 23:45:00,,0820.4,5.01,0.00,29.8,28.2,00.0,38.1,31.3,08.4,0000.0,0003.26,0006.09,0002.38
2023-04-12 23:46:00,,0820.2,4.99,0.00,29.8,28.3,00.0,38.2,31.4,08.4,0000.0,0003.26,0006.70,0002.38
2023-04-12 23:47:00,,0820.1,5.00,0.00,29.9,28.4,00.0,38.2,31.4,08.4,0000.0,0003.22,0007.00,0002.37
2023-04-12 23:48:00,,0820.2,4.99,0.00,29.9,28.5,00.0,38.2,31.5,08.5,0000.0,0003.22,0007.25,0002.34
2023-04-12 23:49:00,,0820.1,5.00,0.00,29.9,28.6,00.0,38.2,31.5,08.5,0000.0,0003.23,0007.47,0002.33
2023-04-12 23:50:00,,0820.1,4.99,0.00,30.0,28.7,00.0,38.2,31.5,08.4,0000.0,0003.25,0007.50,0002.33
2023-04-12 23:51:00,,0820.1,5.00,0.00,30.0,28.7,00.0,38.3,31.6,08.6,0000.0,0003.29,0007.74,0002.31
2023-04-12 23:52:00,,0820.1,5.00,0.00,30.0,28.8,00.0,38.3,31.7,08.6,0000.0,0003.28,0007.78,0002.29
2023-04-12 23:53:00,,0820.1,5.01,0.00,30.0,28.9,00.0,38.3,31.8,08.6,0000.0,0003.25,0007.97,0002.29
2023-04-12 23:54:00,,0820.3,4.99,0.00,30.1,28.3,00.0,38.3,31.7,08.8,0000.0,0003.25,0008.14,0002.28
2023-04-12 23:55:00,,0820.1,5.00,0.00,30.0,26.4,00.0,38.2,31.4,08.7,0000.0,0003.24,0008.11,0002.28
2023-04-12 23:56:00,,0820.1,4.99,0.00,29.9,25.5,00.0,38.1,31.3,08.8,0000.0,0003.25,0008.17,0002.29
2023-04-12 23:57:00,,0820.1,5.00,0.00,29.9,25.7,00.0,38.1,31.2,08.9,0000.0,0003.26,0008.42,0002.30
2023-04-12 23:58:00,,0820.2,5.02,0.00,29.8,26.0,00.0,38.1,31.0,08.7,0000.0,0003.30,0008.49,0002.30
2023-04-12 23:59:00,,0820.2,5.01,0.00,29.7,26.4,00.0,38.1,31.0,08.8,0000.0,0003.29,0008.40,0002.31
